Flag for Germany Weather past 2 weeks in Frankfurt, Hesse, Germany

Now
73 °F

Clear.


Feels Like: 76 °F
Forecast: 74 / 97 °F
Wind: 3 mph from North

Location: Frankfurt-M-Flughafen Airport

Current Time: Jul 3, 2015 at 5:48:09 AM

Latest Report: Jul 3, 2015 at 4:50 AM


Visibility: 10 mi

Pressure: 30.15 "Hg

Humidity: 69%

Dew point: 63 °F

Location of FrankfurtLocation

Historic Weather in Frankfurt — Graph

°F

Frankfurt temperature yesterday

Maximum temperature yesterday: 95 °F (at 3:20 PM)
Minimum temperature yesterday: 72 °F (at 4:20 AM)
Average temperature yesterday: 85 °F

Past Weeks' High & Low Weather Summary

 TemperatureHumidityPressure
High95 °F (Jul 2, 3:20 PM)100% (Jun 18, 8:20 AM)30.21 "Hg (Jun 18, 8:20 AM)
Low48 °F (Jun 23, 4:50 AM)20% (Jun 30, 4:50 PM)29.68 "Hg (Jun 22, 10:50 PM)
Average65 °F67%30.07 "Hg
* Reported Jun 18 4:20 AM — Jul 3 4:20 AM, Frankfurt, Weather by CustomWeather, © 2015

Note: Actual official high and low records may vary slightly from our data, if they occured in-between our weather recording intervals... More about our weather records

Advertising

Frankfurt weather history for previous 24 hours

 ConditionsComfort  
Time TempWeatherWind HumidityBarometerVisibility
4:20 AM
Fri, Jul 3
73 °FClear.6 mph74%30.15 "Hg10 mi
3:50 AM72 °FClear.2 mph78%30.15 "Hg10 mi
3:20 AM73 °FClear.3 mph74%30.12 "Hg10 mi
2:50 AM73 °FClear.3 mph74%30.12 "Hg10 mi
2:20 AM73 °FClear.No wind74%30.12 "Hg10 mi
1:50 AM73 °FClear.5 mph74%30.12 "Hg10 mi
1:20 AM73 °FPassing clouds.3 mph69%30.12 "HgN/A
12:50 AM75 °FClear.3 mph65%30.12 "Hg10 mi
12:20 AM77 °FClear.1 mph61%30.12 "Hg10 mi
11:50 PM
Thu, Jul 2
77 °FClear.3 mph61%30.12 "Hg10 mi
11:20 PM81 °FClear.7 mph54%30.12 "Hg10 mi
10:50 PM84 °FClear.5 mph45%30.12 "Hg10 mi
10:20 PM86 °FSunny.6 mph43%30.12 "Hg10 mi
9:50 PM90 °FSunny.8 mph33%30.09 "Hg10 mi
9:20 PM90 °FSunny.7 mph33%30.09 "Hg10 mi
8:50 PM91 °FSunny.7 mph30%30.09 "Hg10 mi
8:20 PM93 °FPassing clouds.7 mph30%30.09 "HgN/A
7:50 PM93 °FPassing clouds.7 mph28%30.07 "HgN/A
7:20 PM95 °FPassing clouds.8 mph26%30.07 "HgN/A
6:50 PM95 °FPassing clouds.7 mph26%30.07 "HgN/A
6:20 PM95 °FPassing clouds.8 mph26%30.07 "HgN/A
5:50 PM95 °FPassing clouds.7 mph28%30.07 "HgN/A
5:20 PM95 °FPassing clouds.8 mph28%30.09 "HgN/A
4:50 PM95 °FPassing clouds.9 mph28%30.09 "HgN/A
4:20 PM95 °FSunny.7 mph28%30.09 "Hg10 mi
3:50 PM95 °FSunny.5 mph28%30.09 "Hg10 mi
3:20 PM95 °FPassing clouds.6 mph30%30.09 "HgN/A
2:50 PM93 °FSunny.7 mph32%30.09 "Hg10 mi
2:20 PM93 °FPassing clouds.7 mph32%30.09 "HgN/A
1:50 PM93 °FPassing clouds.7 mph34%30.09 "HgN/A
1:20 PM91 °FSunny.6 mph34%30.12 "Hg10 mi
12:50 PM90 °FPassing clouds.6 mph36%30.12 "HgN/A
12:20 PM88 °FPassing clouds.7 mph38%30.12 "HgN/A
11:50 AM88 °FSunny.6 mph38%30.12 "Hg10 mi
11:20 AM88 °FPassing clouds.6 mph38%30.12 "HgN/A
10:50 AM86 °FPassing clouds.5 mph40%30.12 "HgN/A
10:20 AM84 °FPassing clouds.7 mph43%30.12 "HgN/A
9:50 AM82 °FPassing clouds.6 mph45%30.12 "HgN/A
9:20 AM81 °FSunny.8 mph51%30.12 "Hg10 mi
8:50 AM79 °FPassing clouds.9 mph51%30.12 "HgN/A
8:20 AM77 °FSunny.10 mph57%30.12 "Hg10 mi
7:50 AM77 °FSunny.10 mph54%30.12 "Hg10 mi
7:20 AM75 °FSunny.9 mph57%30.12 "Hg10 mi
6:50 AM72 °FSunny.7 mph65%30.12 "Hg10 mi
6:20 AM72 °FSunny.7 mph65%30.12 "Hg10 mi
5:20 AM72 °FPassing clouds.7 mph65%30.09 "HgN/A
Weather by CustomWeather, © 2015

See weather overviewHow to use our weather pages